Eveleth, MN

3:03 AM CST on January 23, 2018 (GMT -0600)
Eveleth-Virginia Municipal

Weather History for KEVM - February, 2014

Change the Weather History Date:

Saturday, February 1, 2014

  Actual Average Record
Temperature  
Mean Temperature 2 °F -  
Max Temperature 12 °F 22 °F 42 °F (1993)
Min Temperature -7 °F 3 °F -25 °F (1988)
Degree Days  
Heating Degree Days 62    
Moisture  
Dew Point -3 °F    
Average Humidity 76    
Maximum Humidity 85    
Minimum Humidity 67    
Precipitation  
Precipitation 0.00 in - - ()
Sea Level Pressure  
Sea Level Pressure 29.91 in    
Wind  
Wind Speed 2 mph (NW)    
Max Wind Speed 12 mph    
Max Gust Speed 18 mph    
Visibility 6 miles    
Events Snow    
Averages and records for this station are not official NWS values.
T = Trace of Precipitation, MM = Missing Value Source: NWS Daily Summary

Daily Weather History Graph

Daily Weather History Graph

Search for Another Location

Airport or City:

Trip Planner

Search our weather history database for the weather conditions in past years. The results will help you decide how hot, cold, wet, or windy it might be!

Date:

Astronomy

Feb. 01, 2014 Rise Set
Actual Time 7:35 AM CST 5:11 PM CST
Civil Twilight 7:03 AM CST 5:44 PM CST
Nautical Twilight 6:26 AM CST 6:21 PM CST
Astronomical Twilight 5:50 AM CST 6:57 PM CST
Moon 8:13 AM CST (2/1) 8:01 PM CST (2/1)
Length of Visible Light 10h 41m
Length of Day
9h 35m
Waxing Crescent, 5% of the Moon is Illuminated
Feb 1
Waxing Crescent
Feb 6
First Quarter
Feb 14
Full
Feb 22
Last Quarter
Mar 1
New

Hourly Weather History & Observations

Time (CST) Temp. Windchill Dew Point Humidity Pressure Visibility Wind Dir Wind Speed Gust Speed Precip Events Conditions
12:06 AM -7.6 °F - -13.0 °F 77% 29.89 in 10.0 mi Calm Calm - N/A   Overcast
12:27 AM -7.6 °F - -13.0 °F 77% 29.88 in 10.0 mi Calm Calm - N/A   Overcast
12:46 AM -7.6 °F - -13.0 °F 77% 29.88 in 10.0 mi Calm Calm - N/A   Overcast
1:06 AM -7.6 °F - -13.0 °F 77% 29.88 in 10.0 mi Calm Calm - N/A Snow Light Snow
1:27 AM -7.6 °F - -13.0 °F 77% 29.88 in 10.0 mi Calm Calm - N/A   Overcast
1:46 AM -5.8 °F - -9.4 °F 84% 29.88 in 10.0 mi Calm Calm - N/A   Overcast
2:07 AM -2.2 °F - -7.6 °F 78% 29.88 in 10.0 mi Calm Calm - N/A   Overcast
2:27 AM -2.2 °F - -7.6 °F 78% 29.88 in 10.0 mi Calm Calm - N/A   Overcast
2:46 AM -2.2 °F - -7.6 °F 78% 29.88 in 7.0 mi Calm Calm - N/A Snow Light Snow
3:06 AM -2.2 °F - -7.6 °F 78% 29.87 in 3.0 mi Calm Calm - N/A Snow Light Snow
3:27 AM -2.2 °F -12.5 °F -7.6 °F 78% 29.86 in 3.0 mi NNE 4.6 mph - N/A Snow Light Snow
3:46 AM -0.4 °F - -7.6 °F 72% 29.86 in 4.0 mi Calm Calm - N/A Snow Light Snow
4:06 AM -0.4 °F - -5.8 °F 78% 29.87 in 3.0 mi Calm Calm - N/A Snow Light Snow
4:27 AM -0.4 °F - -4.0 °F 85% 29.87 in 2.5 mi Calm Calm - N/A Snow Light Snow
4:46 AM -0.4 °F - -4.0 °F 85% 29.87 in 1.5 mi Calm Calm - N/A Snow Light Snow
5:07 AM -0.4 °F -8.3 °F -4.0 °F 85% 29.86 in 2.0 mi NE 3.5 mph - N/A Snow Light Snow
5:26 AM -0.4 °F - -4.0 °F 85% 29.86 in 2.5 mi Calm Calm - N/A Snow Light Snow
5:46 AM 1.4 °F -6.2 °F -4.0 °F 78% 29.85 in 1.5 mi NE 3.5 mph - N/A Snow Light Snow
6:06 AM 1.4 °F -6.2 °F -4.0 °F 78% 29.85 in 1.8 mi NE 3.5 mph - N/A Snow Light Snow
6:26 AM 1.4 °F - -4.0 °F 78% 29.84 in 1.8 mi Calm Calm - N/A Snow Light Snow
6:46 AM 3.2 °F -4.2 °F -2.2 °F 78% 29.84 in 1.8 mi ENE 3.5 mph - N/A Snow Light Snow
7:06 AM 3.2 °F - -2.2 °F 78% 29.84 in 1.5 mi Calm Calm - N/A Snow Light Snow
7:27 AM 3.2 °F - -2.2 °F 78% 29.85 in 1.5 mi Calm Calm - N/A Snow Light Snow
7:46 AM 3.2 °F - -2.2 °F 78% 29.85 in 2.0 mi Calm Calm - N/A Snow Light Snow
8:06 AM 3.2 °F - -2.2 °F 78% 29.86 in 1.0 mi Calm Calm - N/A Snow Light Snow
8:27 AM 3.2 °F - -2.2 °F 78% 29.85 in 1.0 mi Calm Calm - N/A Snow Light Snow
8:46 AM 3.2 °F - -0.4 °F 85% 29.85 in 1.8 mi Calm Calm - N/A Snow Light Snow
9:06 AM 3.2 °F - -0.4 °F 85% 29.85 in 1.8 mi Calm Calm - N/A Snow Light Snow
9:27 AM 5.0 °F - -0.4 °F 78% 29.86 in 1.2 mi Calm Calm - N/A Snow Light Snow
9:46 AM 5.0 °F - -0.4 °F 78% 29.86 in 1.0 mi Calm Calm - N/A Snow Light Snow
10:06 AM 5.0 °F - -0.4 °F 78% 29.86 in 0.8 mi Calm Calm - N/A Snow Light Snow
10:27 AM 6.8 °F -2.0 °F 1.4 °F 79% 29.87 in 2.0 mi West 4.6 mph - N/A Snow Light Snow
10:46 AM 6.8 °F -3.5 °F 1.4 °F 79% 29.87 in 2.5 mi West 5.8 mph - N/A Snow Light Snow
11:07 AM 6.8 °F -2.0 °F 1.4 °F 79% 29.88 in 2.0 mi West 4.6 mph - N/A Snow Light Snow
11:26 AM 8.6 °F -1.3 °F 1.4 °F 73% 29.88 in 2.5 mi WNW 5.8 mph - N/A Snow Light Snow
11:46 AM 8.6 °F -4.7 °F 3.2 °F 79% 29.88 in 3.0 mi NW 9.2 mph - N/A Snow Light Snow
12:07 PM 10.4 °F 2.2 °F 3.2 °F 73% 29.88 in 4.0 mi NW 4.6 mph - N/A Snow Light Snow
12:26 PM 10.4 °F 2.2 °F 3.2 °F 73% 29.88 in 5.0 mi West 4.6 mph - N/A Snow Light Snow
12:46 PM 10.4 °F -0.4 °F 3.2 °F 73% 29.88 in 4.0 mi NW 6.9 mph - N/A Snow Light Snow
1:07 PM 12.2 °F 2.9 °F 5.0 °F 73% 29.88 in 4.0 mi NW 5.8 mph - N/A Snow Light Snow
1:26 PM 12.2 °F -1.0 °F 5.0 °F 73% 29.88 in 5.0 mi NW 10.4 mph - N/A Snow Light Snow
1:46 PM 12.2 °F -0.2 °F 5.0 °F 73% 29.89 in 5.0 mi NW 9.2 mph - N/A Snow Light Snow
2:07 PM 12.2 °F -0.2 °F 5.0 °F 73% 29.90 in 7.0 mi NW 9.2 mph 18.4 mph N/A Snow Light Snow
2:27 PM 12.2 °F -1.8 °F 5.0 °F 73% 29.90 in 5.0 mi NW 11.5 mph - N/A Snow Light Snow
2:46 PM 12.2 °F -1.0 °F 3.2 °F 67% 29.91 in 10.0 mi NW 10.4 mph 17.3 mph N/A   Scattered Clouds
3:07 PM 12.2 °F 2.9 °F 3.2 °F 67% 29.92 in 10.0 mi NW 5.8 mph - N/A Snow Light Snow
3:27 PM 12.2 °F 0.7 °F 3.2 °F 67% 29.93 in 7.0 mi NW 8.1 mph - N/A Snow Light Snow
3:46 PM 12.2 °F -1.0 °F 3.2 °F 67% 29.94 in 10.0 mi NW 10.4 mph - N/A   Mostly Cloudy
4:07 PM 10.4 °F -2.4 °F 1.4 °F 67% 29.95 in 10.0 mi NW 9.2 mph - N/A   Overcast
4:27 PM 10.4 °F -3.3 °F 1.4 °F 67% 29.95 in 10.0 mi NNW 10.4 mph - N/A   Overcast
4:46 PM 8.6 °F -4.7 °F 1.4 °F 73% 29.96 in 10.0 mi NW 9.2 mph - N/A   Overcast
5:07 PM 8.6 °F -4.7 °F -0.4 °F 67% 29.97 in 10.0 mi WNW 9.2 mph - N/A   Overcast
5:26 PM 6.8 °F -5.9 °F -0.4 °F 72% 29.98 in 10.0 mi NW 8.1 mph - N/A   Mostly Cloudy
5:46 PM 5.0 °F -5.6 °F -2.2 °F 72% 29.99 in 10.0 mi WNW 5.8 mph - N/A   Mostly Cloudy
6:07 PM 5.0 °F -5.6 °F -2.2 °F 72% 30.00 in 10.0 mi WNW 5.8 mph - N/A   Scattered Clouds
6:26 PM 3.2 °F -6.2 °F -4.0 °F 72% 30.01 in 10.0 mi WNW 4.6 mph - N/A   Scattered Clouds
6:46 PM 3.2 °F -6.2 °F -4.0 °F 72% 30.02 in 10.0 mi WNW 4.6 mph - N/A   Clear
9:31 PM -0.4 °F -10.4 °F -7.6 °F 72% 30.06 in 10.0 mi NW 4.6 mph - N/A   Clear
9:41 PM -0.4 °F - -7.6 °F 72% 30.06 in 10.0 mi Calm Calm - N/A   Clear
10:07 PM -2.2 °F -10.4 °F -9.4 °F 71% 30.07 in 10.0 mi WNW 3.5 mph - N/A   Clear
10:26 PM -2.2 °F -12.5 °F -9.4 °F 71% 30.07 in 10.0 mi WNW 4.6 mph - N/A   Clear
10:46 PM -2.2 °F - -9.4 °F 71% 30.07 in 10.0 mi Calm Calm - N/A   Clear
11:06 PM -7.6 °F - -13.0 °F 77% 30.07 in 10.0 mi Calm Calm - N/A   Clear
11:27 PM -5.8 °F - -9.4 °F 84% 30.08 in 10.0 mi Calm Calm - N/A   Clear
11:46 PM -5.8 °F - -11.2 °F 77% 30.09 in 10.0 mi Calm Calm - N/A   Clear